Location: Asheville, NC
(35.6000°N, 82.5500°W)
Time: 01:26:29
(UTC-05:00)

CUTE 1.7 + AOD 2 - Pass Details

Date: 16 February 2018
Orbit: 594 x 614 km, 97.6° (Epoch: 21 February)

Event Time Altitude Azimuth Distance (km) Brightness Sun altitude
Rises 19:34:36 0° 202° (SSW) 2,828 ? -17.2°
Reaches altitude 10° 19:37:19 10° 220° (SW) 1,928 ? -17.7°
Maximum altitude 19:40:16 19° 266° (W) 1,448 ? -18.3°
Drops below altitude 10° 19:43:14 10° 311° (NW) 1,931 ? -18.9°
Sets 19:45:58 0° 330° (NNW) 2,836 ? -19.5°
